Skip Page Navigation
NASA JPL Caltech
NASA Logo - Jet Propulsion Laboratory + View the NASA Portal
+ Center for Near-Earth Object Studies
JPL Home Earth Solar System Stars & Galaxies Technology
JPL Solar System Dynamics
BODIES ORBITS EPHEMERIDES TOOLS PHYSICAL DATA DISCOVERY FAQ SITE MAP
IMPORTANT: The SSD Announcement email list is now available. Major changes are coming in the near future, including possible hostname and/or URL changes. To be notified of such changes, subscribe to this email list.

Please visit this page for more details.


JPL Small-Body Database Browser
Search: [ help ]  
201033 (2002 DJ10)
Classification: Main-belt Asteroid          SPK-ID: 2201033
Ephemeris | Orbit Diagram | Orbital Elements | Mission Design | Physical Parameters | Discovery Circumstances | Close-Approach Data ]

[ show orbit diagram ]
Orbital Elements at Epoch 2458600.5 (2019-Apr-27.0) TDB
Reference: JPL 13 (heliocentric ecliptic J2000)
 Element Value Uncertainty (1-sigma)   Units 
e .1630066726139825 4.763e-08  
a 2.408965981879496 1.4947e-08 au
q 2.016288452733044 1.1831e-07 au
i 2.12537368098115 4.9941e-06 deg
node 218.8773238519795 0.00013928 deg
peri 343.7801524786557 0.00014007 deg
M 180.9660096382534 1.6712e-05 deg
tp 2459279.668317487069
(2021-Mar-06.16831749)
6.6063e-05 TDB
period 1365.665781125248
3.74
1.2711e-05
3.48e-08
d
yr
n .2636076886274297 2.4535e-09 deg/d
Q 2.801643511025948 1.7384e-08 au
  Orbit Determination Parameters
   # obs. used (total)      212  
   data-arc span      6970 days (19.08 yr)  
   first obs. used      2000-11-02  
   last obs. used      2019-12-03  
   planetary ephem.      DE431  
   SB-pert. ephem.      SB431-N16  
   condition code      0  
   norm. resid. RMS      .59427  
   source      ORB  
   producer      Otto Matic  
   solution date      2019-Dec-14 14:33:56  

Additional Information
 Earth MOID = 1.01333 au 
 Jupiter MOID = 2.16027 au 
 T_jup = 3.502 
[ show covariance matrix ]

Ephemeris | Orbit Diagram | Orbital Elements | Mission Design | Physical Parameters | Discovery Circumstances | Close-Approach Data ]

Physical Parameter Table
Parameter Symbol Value Units Sigma Reference Notes
absolute magnitude H 17.2   n/a MPO503053  

201033 (2002 DJ10)          Discovered 2002-Feb-20 by LINEAR at Socorro
Reference: 20081212/Numbers.arcLast Updated: 2008-12-12

[ show close-approach data ]
Ephemeris | Orbit Diagram | Orbital Elements | Mission Design | Physical Parameters | Discovery Circumstances | Close-Approach Data ]
ABOUT SSD CREDITS/AWARDS PRIVACY/COPYRIGHT GLOSSARY LINKS
FirstGov 2020-Jan-25 15:14 UT
(server date/time)  
NASA Home Page
Site Manager:   Ryan S. Park
Webmaster  Alan B. Chamberlin